When you browse on this site, cookies collect data to enhance your experience and personalize the content and advertising you see.
Visit our Privacy Policy to learn more. By continuing to use the site, you agree to this use of cookies and data.
  • In Latvia
  • List of Countries
  • For 7 days
  • Water Temperature
  • Weather Map
  • Weather Widgets
  • user-avatar
    Login

    Hourly Weather Malaya Sopka

    Today, 27 January, Monday

    Time Temperature Precipitation Wind Pressure Humidity
    00:00 -1°C° 0 mm 2 mps 764 mmHg 83%
    01:00 -1°C° 0 mm 2 mps 764 mmHg 84%
    02:00 -1°C° 0 mm 3 mps 764 mmHg 85%
    03:00 -1°C° 0 mm 3 mps 764 mmHg 86%
    04:00 -1°C° 0 mm 3 mps 763 mmHg 86%
    05:00 -1°C° 0 mm 3 mps 763 mmHg 86%
    06:00 -1°C° 0 mm 3 mps 763 mmHg 86%
    07:00 -1°C° 0 mm 3 mps 763 mmHg 85%
    08:00 -1°C° 0 mm 3 mps 763 mmHg 84%
    09:00 -1°C° 0 mm 3 mps 763 mmHg 83%
    10:00 0°C° 0 mm 4 mps 763 mmHg 76%
    11:00 +1°C° 0 mm 4 mps 763 mmHg 70%
    12:00 +3°C° 0 mm 4 mps 763 mmHg 64%
    13:00 +3°C° 0 mm 4 mps 763 mmHg 63%
    14:00 +3°C° 0 mm 4 mps 763 mmHg 63%
    15:00 +4°C° 0 mm 4 mps 762 mmHg 62%
    16:00 +3°C° 0 mm 3 mps 762 mmHg 67%
    17:00 +3°C° 0 mm 2 mps 762 mmHg 72%
    18:00 +2°C° 0 mm 2 mps 762 mmHg 76%
    19:00 +2°C° 0 mm 2 mps 762 mmHg 78%
    20:00 +2°C° 0 mm 1 mps 762 mmHg 79%
    21:00 +2°C° 0 mm 1 mps 762 mmHg 80%
    22:00 +2°C° 0 mm 1 mps 762 mmHg 79%
    23:00 +2°C° 0 mm 1 mps 762 mmHg 79%

    Tomorrow, 28 January, Tuesday

    Time Temperature Precipitation Wind Pressure Humidity
    00:00 +2°C° 0 mm 1 mps 762 mmHg 79%
    01:00 +2°C° 0 mm 1 mps 761 mmHg 80%
    02:00 +2°C° 0 mm 1 mps 761 mmHg 80%
    03:00 +3°C° 0 mm 1 mps 761 mmHg 81%
    04:00 +3°C° 0 mm 1 mps 761 mmHg 83%
    05:00 +2°C° 0 mm 2 mps 760 mmHg 84%
    06:00 +2°C° 0 mm 2 mps 760 mmHg 86%
    07:00 +2°C° 0 mm 2 mps 760 mmHg 88%
    08:00 +2°C° 0 mm 2 mps 760 mmHg 91%
    09:00 +3°C° 0 mm 2 mps 761 mmHg 93%
    10:00 +3°C° 0 mm 2 mps 760 mmHg 90%
    11:00 +4°C° 0 mm 2 mps 760 mmHg 87%
    12:00 +5°C° 0 mm 2 mps 760 mmHg 84%
    13:00 +6°C° 0 mm 2 mps 759 mmHg 79%
    14:00 +7°C° 0 mm 3 mps 759 mmHg 74%
    15:00 +8°C° 0 mm 3 mps 759 mmHg 69%
    16:00 +7°C° 0 mm 3 mps 758 mmHg 73%
    17:00 +5°C° 0 mm 3 mps 758 mmHg 77%
    18:00 +4°C° 0 mm 3 mps 758 mmHg 81%
    19:00 +4°C° 0 mm 3 mps 758 mmHg 83%
    20:00 +4°C° 0 mm 3 mps 758 mmHg 85%
    21:00 +3°C° 0 mm 3 mps 758 mmHg 87%
    22:00 +3°C° 0 mm 3 mps 758 mmHg 87%
    23:00 +3°C° 0 mm 4 mps 758 mmHg 86%

    Day after tomorrow, 29 January, Wednesday

    Time Temperature Precipitation Wind Pressure Humidity
    00:00 +3°C° 0 mm 4 mps 757 mmHg 86%
    01:00 +1°C° 0 mm 4 mps 757 mmHg 86%
    02:00 +1°C° 0 mm 4 mps 757 mmHg 86%
    03:00 +1°C° 0 mm 5 mps 757 mmHg 85%
    04:00 +1°C° 0 mm 5 mps 756 mmHg 85%
    05:00 +1°C° 0 mm 5 mps 756 mmHg 85%
    06:00 +1°C° 0 mm 5 mps 756 mmHg 86%
    07:00 +1°C° 0.2 mm 6 mps 756 mmHg 86%
    08:00 +1°C° 0.2 mm 6 mps 756 mmHg 87%
    09:00 +1°C° 0.2 mm 6 mps 756 mmHg 88%
    10:00 +2°C° 0.9 mm 6 mps 755 mmHg 89%
    11:00 +2°C° 0.9 mm 6 mps 755 mmHg 90%
    12:00 +2°C° 0.9 mm 6 mps 755 mmHg 91%
    13:00 +2°C° 0.4 mm 6 mps 754 mmHg 91%
    14:00 +3°C° 0.4 mm 6 mps 754 mmHg 91%
    15:00 +3°C° 0.4 mm 6 mps 753 mmHg 92%
    16:00 +3°C° 0.4 mm 6 mps 753 mmHg 92%
    17:00 +3°C° 0.4 mm 6 mps 753 mmHg 93%
    18:00 +4°C° 0.4 mm 6 mps 753 mmHg 93%
    19:00 +4°C° 0.5 mm 6 mps 753 mmHg 93%
    20:00 +4°C° 0.5 mm 6 mps 753 mmHg 93%
    21:00 +4°C° 0.5 mm 6 mps 753 mmHg 93%
    22:00 +4°C° 0.1 mm 6 mps 753 mmHg 93%
    23:00 +4°C° 0.1 mm 6 mps 752 mmHg 92%

    30 January, Thursday

    Time Temperature Precipitation Wind Pressure Humidity
    00:00 +4°C° 0.1 mm 6 mps 751 mmHg 92%
    01:00 +4°C° 0.8 mm 7 mps 751 mmHg 91%
    02:00 +4°C° 0.8 mm 8 mps 751 mmHg 90%
    03:00 +3°C° 0.8 mm 9 mps 751 mmHg 89%
    04:00 +4°C° 1.3 mm 8 mps 751 mmHg 85%
    05:00 +2°C° 1.3 mm 8 mps 752 mmHg 81%
    06:00 +2°C° 1.3 mm 7 mps 752 mmHg 77%
    07:00 +2°C° 0 mm 7 mps 753 mmHg 77%
    08:00 +2°C° 0 mm 6 mps 753 mmHg 77%
    09:00 +1°C° 0 mm 6 mps 754 mmHg 77%
    10:00 +2°C° 0 mm 6 mps 754 mmHg 71%
    11:00 +3°C° 0 mm 7 mps 754 mmHg 65%
    12:00 +4°C° 0 mm 8 mps 754 mmHg 59%
    13:00 +4°C° 0 mm 7 mps 754 mmHg 56%
    14:00 +5°C° 0 mm 7 mps 754 mmHg 52%
    15:00 +5°C° 0 mm 7 mps 754 mmHg 48%
    16:00 +4°C° 0 mm 6 mps 754 mmHg 53%
    17:00 +5°C° 0 mm 5 mps 753 mmHg 58%
    18:00 +4°C° 0 mm 4 mps 753 mmHg 62%
    19:00 +4°C° 0 mm 4 mps 753 mmHg 66%
    20:00 +2°C° 0 mm 5 mps 753 mmHg 71%
    21:00 +2°C° 0 mm 5 mps 754 mmHg 75%
    22:00 +2°C° 0 mm 5 mps 753 mmHg 76%
    23:00 +2°C° 0 mm 5 mps 753 mmHg 78%

    31 January, Friday

    Time Temperature Precipitation Wind Pressure Humidity
    00:00 +2°C° 0 mm 5 mps 753 mmHg 79%
    01:00 +1°C° 0 mm 5 mps 753 mmHg 82%
    02:00 +1°C° 0 mm 5 mps 753 mmHg 86%
    03:00 +1°C° 0 mm 5 mps 753 mmHg 89%
    04:00 +1°C° 0 mm 5 mps 753 mmHg 89%
    05:00 0°C° 0 mm 4 mps 753 mmHg 90%
    06:00 0°C° 0 mm 4 mps 753 mmHg 90%
    07:00 0°C° 0 mm 4 mps 753 mmHg 89%
    08:00 0°C° 0 mm 5 mps 753 mmHg 88%
    09:00 0°C° 0 mm 5 mps 754 mmHg 87%
    10:00 +1°C° 0 mm 5 mps 754 mmHg 82%
    11:00 +2°C° 0 mm 5 mps 754 mmHg 77%
    12:00 +2°C° 0 mm 5 mps 753 mmHg 73%
    13:00 +3°C° 0 mm 5 mps 753 mmHg 75%
    14:00 +4°C° 0 mm 4 mps 753 mmHg 76%
    15:00 +4°C° 0 mm 4 mps 753 mmHg 78%
    16:00 +3°C° 0 mm 4 mps 753 mmHg 81%
    17:00 +3°C° 0 mm 3 mps 754 mmHg 85%
    18:00 +3°C° 0 mm 3 mps 754 mmHg 88%
    19:00 +3°C° 0.1 mm 3 mps 754 mmHg 88%
    20:00 +4°C° 0.1 mm 2 mps 754 mmHg 89%
    21:00 +3°C° 0.1 mm 2 mps 755 mmHg 89%
    22:00 +3°C° 0 mm 2 mps 755 mmHg 89%
    23:00 +3°C° 0 mm 2 mps 755 mmHg 89%

    1 February, Saturday

    Time Temperature Precipitation Wind Pressure Humidity
    00:00 +3°C° 0 mm 2 mps 755 mmHg 89%
    01:00 +2°C° 0 mm 2 mps 755 mmHg 90%
    02:00 +2°C° 0 mm 2 mps 755 mmHg 92%
    03:00 +2°C° 0 mm 2 mps 755 mmHg 93%
    04:00 +2°C° 0 mm 1 mps 755 mmHg 92%
    05:00 +2°C° 0 mm 1 mps 755 mmHg 91%
    06:00 +2°C° 0 mm 1 mps 755 mmHg 91%
    07:00 +2°C° 0 mm 1 mps 755 mmHg 89%
    08:00 +2°C° 0 mm 1 mps 756 mmHg 88%
    09:00 +1°C° 0 mm 0 mps 756 mmHg 86%
    10:00 +3°C° 0 mm 1 mps 756 mmHg 81%
    11:00 +4°C° 0 mm 1 mps 757 mmHg 77%
    12:00 +4°C° 0 mm 1 mps 757 mmHg 72%
    13:00 +5°C° 0 mm 1 mps 757 mmHg 69%
    14:00 +4°C° 0 mm 2 mps 757 mmHg 65%
    15:00 +4°C° 0 mm 2 mps 757 mmHg 62%
    16:00 +4°C° 0 mm 2 mps 757 mmHg 65%
    17:00 +5°C° 0 mm 1 mps 758 mmHg 68%
    18:00 +4°C° 0 mm 1 mps 758 mmHg 71%
    19:00 +4°C° 0 mm 1 mps 758 mmHg 73%
    20:00 +4°C° 0 mm 1 mps 759 mmHg 75%
    21:00 +4°C° 0 mm 1 mps 759 mmHg 77%
    22:00 +3°C° 0 mm 1 mps 759 mmHg 78%
    23:00 +3°C° 0 mm 1 mps 759 mmHg 79%
    Show more